Location: Casper
(42.8670°N, 106.3130°W)
Time: 07:41:22
(UTC-07:00)

Daily predictions for brighter satellites

Satellite Brightness Start Highest point End
(mag) Time Altitude Azimuth Time Altitude Azimuth Time Altitude Azimuth
IDEFIX/ARIANE 42P 2.7 17:28:35 10° SSE 17:33:48 83° WSW 17:39:05 10° NNW
Cosmos 540 Rocket 3.5 17:29:02 10° S 17:34:12 73° ESE 17:39:22 10° NNE
Cosmos 1515 Rocket 3.8 17:30:47 10° N 17:35:15 79° W 17:39:41 10° S
Cosmos 2058 3.3 17:34:08 10° SSE 17:38:01 43° E 17:41:54 10° NNE
Cosmos 2360 Rocket 4.4 17:34:11 10° W 17:38:08 19° NW 17:42:05 10° N
Cosmos 2084 4.4 17:34:36 10° WSW 17:38:15 39° NW 17:41:50 10° NNE
CORIOLIS 4.2 17:34:26 10° SSE 17:39:46 85° ENE 17:45:11 10° NNW
Cosmos 1805 Rocket 4.4 17:38:44 10° SSE 17:42:38 30° E 17:46:32 10° NNE
Lacrosse 5 3.8 17:39:38 10° NW 17:42:51 17° N 17:46:05 10° NE
ATLAS 5 CENTAUR R/B 4.2 17:42:21 10° N 17:43:55 11° NNE 17:45:32 10° NE
Cosmos 1461 3.4 17:40:15 10° S 17:44:13 42° ESE 17:48:04 10° NE
Cosmos 1980 3.9 17:38:38 10° SSW 17:44:19 82° WNW 17:50:02 10° NNE
SKYMED 2 4.2 17:40:31 10° NNE 17:44:34 36° E 17:48:34 10° SSE
Cosmos 1900 4.5 17:41:25 10° NNW 17:46:15 53° NE 17:51:09 10° SE
USA 215 3.8 17:42:31 10° E 17:48:33 41° NNE 17:54:35 10° NW
Cosmos 1500 Rocket 4.0 17:45:00 10° SSW 17:49:17 64° W 17:53:39 10° N
Cosmos 1626 3.3 17:46:15 10° SE 17:49:18 24° E 17:52:20 10° NE
CZ-4 R/B 4.4 17:45:34 10° SSE 17:49:42 84° E 17:53:52 10° NNW
BREEZE-M DEB (TANK) 1.2 17:52:03 10° WSW 17:55:05 89° ESE 17:56:47 14° ENE
Lacrosse 5 rocket 2.3 17:51:50 10° WNW 17:55:29 48° SW 17:59:19 10° SSE
Sich 1 4.0 17:51:49 10° SSE 17:55:33 27° E 17:59:18 10° NNE
Cosmos 44 4.0 17:50:43 10° SW 17:55:52 57° NW 18:00:49 10° NNE
Meteor 1-11 4.2 17:50:55 10° S 17:56:34 73° E 18:02:21 10° NNE
Cosmos 1356 Rocket 4.1 17:54:29 10° SSE 17:58:00 30° E 18:01:32 10° NNE
CZ-2C R/B 3.6 17:55:20 10° S 18:00:04 46° W 18:04:41 10° NNW
Cosmos 2219 Rocket 3.4 17:55:56 10° SW 18:01:14 41° WNW 18:06:33 10° NNE
Cosmos 1726 3.1 17:58:55 10° NNW 18:02:36 52° W 18:06:16 10° S
ALOS 3.6 18:00:33 10° ESE 18:03:45 19° ENE 18:06:57 10° NNE
Coronas F rocket 3.5 18:03:50 10° ESE 18:03:52 10° ESE 18:03:52 10° ESE
Cosmos 1633 Rocket 3.8 18:02:07 10° SSE 18:05:57 30° E 18:09:49 10° NNE
Cosmos 2333 Rocket 3.2 18:02:54 10° SW 18:08:19 46° WNW 18:13:46 10° NNE
Cosmos 1455 2.7 18:07:03 10° N 18:10:36 36° ENE 18:14:09 10° SE
Abrixas 3.1 18:09:57 10° W 18:12:46 43° NNW 18:14:25 21° NE
Cosmos 2278 Rocket 3.6 18:09:36 10° NW 18:14:57 43° WSW 18:20:17 10° S
CENTAUR R/B 4.2 18:14:46 10° W 18:20:05 26° NNW 18:25:59 10° NNE
Cosmos 1184 Rocket 3.3 18:16:59 10° SSE 18:20:07 38° E 18:22:06 19° NE
Cosmos 1703 3.1 18:16:54 10° S 18:20:47 80° E 18:24:41 10° N
Cosmos 1242 Rocket 4.3 18:18:07 10° NNE 18:19:09 15° NNE 18:19:09 15° NNE
CZ-4 R/B 4.3 18:21:17 10° SW 18:24:08 19° W 18:27:01 10° NW
SJ-6B 3.2 18:21:17 10° SE 18:25:11 44° ENE 18:29:09 10° N
USA 229 DEB 3.9 18:23:06 10° S 18:29:39 51° ESE 18:34:38 18° NE
USA 229 3.9 18:23:12 10° S 18:29:45 50° ESE 18:34:42 18° NE
Spot 2 Rocket 4.1 18:25:59 10° SE 18:30:23 31° ENE 18:34:49 10° N
Cosmos 1707 Rocket 3.4 18:26:23 10° N 18:30:45 88° E 18:35:05 10° S
DMSP B5D1-3 4.4 18:27:20 10° NNE 18:32:27 83° ESE 18:37:34 10° SSW
COSMO-SKYMED 1 2.9 18:28:20 10° N 18:32:39 66° WNW 18:36:57 10° SSW
Iridium 4 Rocket 3.5 18:29:26 10° SSE 18:33:32 38° E 18:37:07 12° NNE
Cosmos 2237 Rocket 3.7 18:34:36 10° WSW 18:39:41 34° NW 18:44:49 10° N
FREGAT/IRIS 2.5 18:37:38 10° SSE 18:40:38 62° ENE 18:43:41 10° N
Cosmos 1666 Rocket 3.5 18:37:41 10° S 18:42:02 88° W 18:46:27 10° N
Cosmos 2369 Rocket 3.1 18:37:50 10° N 18:42:35 27° NE 18:42:51 27° ENE
FAST Rocket 4.3 18:40:44 10° SSW 18:43:19 66° W 18:46:08 11° N
SL-19 R/B 4.4 18:37:55 10° SE 18:43:34 55° ENE 18:49:00 10° N
Cosmos 1538 Rocket 4.2 18:42:00 10° SSW 18:47:18 75° WNW 18:52:41 10° NNE
SL-16 R/B 2.6 18:42:21 10° SW 18:47:57 64° WNW 18:53:36 10° NNE
Resurs 1-3 4.5 18:53:23 32° NE 18:53:23 32° NE 18:56:16 10° N
Resurs 01 Rocket 1.8 18:49:46 23° SE 18:52:15 47° ENE 18:56:31 10° N
Cosmos 1933 Rocket 3.8 18:49:23 10° SSE 18:53:36 45° E 18:53:46 45° E
Meteor 1-28 Rocket 4.2 18:51:00 10° N 18:54:35 46° WNW 18:58:09 10° SSW
Cosmos 923 Rocket 4.0 18:49:58 10° S 18:55:04 59° ESE 18:57:25 31° NE
TIMED 4.4 18:52:32 10° NNW 18:56:56 89° E 19:01:18 10° SSE
Lacrosse 4 Rocket 1.2 18:55:47 10° NNW 18:59:52 86° WSW 19:01:45 31° SSE
Tiangong 1 3.3 18:59:06 10° SSW 19:00:16 17° S 19:00:16 17° S
Cosmos 1680 Rocket 3.6 18:56:27 10° S 19:01:29 52° ESE 19:02:29 45° ENE
Cosmos 1869 3.4 19:01:30 10° N 19:05:33 77° W 19:09:35 10° S
Cosmos 1655 Rocket 4.2 19:01:55 10° SSE 19:07:54 45° E 19:09:16 39° ENE
CZ-4C R/B 4.0 19:03:16 10° NNW 19:08:27 22° NNE 19:08:40 22° NNE
Cosmos 1627 Rocket 4.4 19:03:56 10° S 19:09:59 60° E 19:16:00 10° NNE
FENGYUN 3A 3.5 19:07:09 10° SSE 19:12:30 80° ENE 19:17:54 10° N
Cosmos 1470 Rocket 3.4 19:10:45 10° S 19:15:06 86° E 19:15:29 74° NNE
NOSS 3-1 (C) 3.9 19:15:51 10° S 19:20:20 40° SE 19:20:20 40° SE
Cosmos 2242 Rocket 4.5 19:18:17 10° NNW 19:22:34 49° W 19:26:51 10° SSW
Cosmos 1943 4.1 19:20:24 10° S 19:23:49 33° SSE 19:23:49 33° SSE
Lacrosse 5 3.6 19:23:41 10° NNW 19:26:32 20° N 19:26:32 20° N
ATLAS 5 CENTAUR R/B 3.5 19:25:20 10° NNW 19:28:58 27° NNE 19:28:58 27° NNE
USA 215 3.3 19:28:14 35° SE 19:31:14 78° SW 19:37:50 10° NW
ATLAS 3B R/B 4.3 19:29:00 10° NNW 19:33:09 19° NNE 19:33:09 19° NNE
Cosmos 2026 Rocket 3.8 19:30:44 10° S 19:36:57 87° E 19:40:53 24° N
Cosmos 2112 Rocket 4.0 19:32:47 10° SSW 19:37:37 78° SSW 19:37:37 78° SSW
ALOS 3.1 19:36:17 10° S 19:40:48 50° W 19:45:22 10° NNW
Cosmos 1943 Rocket 3.9 19:42:29 10° NNW 19:44:17 20° N 19:44:17 20° N
Meteor 2-20 4.4 19:46:12 10° S 19:52:19 79° W 19:53:35 58° N
Cosmos 1603 4.3 19:47:23 10° SW 19:52:49 52° WNW 19:54:02 44° NNW
Cosmos 2369 Rocket 3.6 20:21:26 10° NW 20:24:42 33° NW 20:24:42 33° NW
Resurs 01 Rocket 4.3 20:27:17 14° WSW 20:28:57 17° W 20:31:53 10° NW
CZ-4C R/B 4.4 20:51:11 10° NNW 20:53:53 26° NNW 20:53:53 26° NNW
